Printer-friendly version

IAU Minor Planet Center

Minor Planet Center

MPEC 2001-W34: 2001 UU92

The following Minor Planet Electronic Circular may be linked-to from your own Web pages, but must not otherwise be redistributed electronically.


Read MPEC 2001-W33 Read MPEC 2001-W35


M.P.E.C. 2001-W34                                Issued 2001 Nov. 20, 22:24 UT

     The Minor Planet Electronic Circulars contain information on unusual
         minor planets and routine data on comets.  They are published
   on behalf of Commission 20 of the International Astronomical Union by the
          Minor Planet Center, Smithsonian Astrophysical Observatory,
                          Cambridge, MA 02138, U.S.A.

             Prepared using the Tamkin Foundation Computer Network

                              MPC@CFA.HARVARD.EDU
          URL http://cfa-www.harvard.edu/iau/mpc.html  ISSN 1523-6714

                                   2001 UU92

Observations:
     K01U92U* C2001 10 19.31539 01 19 42.19 +14 22 17.3          19.1        644
     K01U92U  C2001 10 19.33677 01 19 40.52 +14 22 30.1          19.1        644
     K01U92U  C2001 10 19.35768 01 19 38.90 +14 22 42.9          19.3        644
     K01U92U  C2001 10 20.44367 01 18 20.12 +14 33 44.1          19.5        644
     K01U92U  C2001 10 20.46484 01 18 18.48 +14 33 57.2          19.6        644
     K01U92U  C2001 10 20.48616 01 18 16.83 +14 34 09.3          19.9        644
     K01U92U  C2001 11 10.22589 00 48 27.33 +19 15 45.5          18.6        704
     K01U92U  C2001 11 10.24027 00 48 25.89 +19 16 02.6          19.2        704
     K01U92U  C2001 11 10.25477 00 48 24.44 +19 16 17.9          18.7        704
     K01U92U  C2001 11 10.28554 00 48 21.37 +19 16 49.0          19.2        704
     K01U92U  C2001 11 12.23072 00 45 29.40 +19 52 34.1          19.3        704
     K01U92U  C2001 11 12.24588 00 45 27.82 +19 52 50.7          19.6        704
     K01U92U  C2001 11 12.26165 00 45 26.33 +19 53 07.5          19.6        704
     K01U92U  C2001 11 12.27617 00 45 24.83 +19 53 23.5          19.1        704
     K01U92U  C2001 11 18.13728 00 37 21.25 +21 54 53.7          18.6        704
     K01U92U  C2001 11 18.15108 00 37 20.08 +21 55 13.2          18.8        704
     K01U92U  C2001 11 18.15209 00 37 19.90 +21 55 14.1          19.2        704
     K01U92U  C2001 11 18.16686 00 37 18.57 +21 55 34.0          19.5        704
     K01U92U  C2001 11 18.16803 00 37 18.54 +21 55 35.9          19.5        704
     K01U92U  C2001 11 18.18165 00 37 17.33 +21 55 53.8          20.2        704
     K01U92U  C2001 11 18.18413 00 37 17.03 +21 55 58.7          19.7        704
     K01U92U  C2001 11 18.19640 00 37 15.93 +21 56 14.3          19.1        704
     K01U92U  C2001 11 18.21475 00 37 14.36 +21 56 40.0          19.4        704
     K01U92U  C2001 11 19.16567 00 36 03.10 +22 18 36.0          18.9        704
     K01U92U  C2001 11 19.18045 00 36 01.82 +22 18 56.7          18.9        704
     K01U92U  C2001 11 19.19521 00 36 00.52 +22 19 17.1          19.1        704
     K01U92U  C2001 11 19.88312 00 35 10.03 +22 35 29.3          18.3 R      587
     K01U92U  C2001 11 19.89546 00 35 09.02 +22 35 47.9                      587
     K01U92U  C2001 11 20.19036 00 34 47.63 +22 42 57.3          19.1 R      649
     K01U92U  C2001 11 20.19361 00 34 47.35 +22 43 02.3          19.0 R      649
     K01U92U  C2001 11 20.19689 00 34 47.07 +22 43 06.9          18.8 R      649
     K01U92U  C2001 11 20.75538 00 34 09.12 +22 56 41.4          18.3 R      046
     K01U92U  C2001 11 20.75669 00 34 09.01 +22 56 43.0                      046
     K01U92U  C2001 11 20.75795 00 34 08.91 +22 56 43.6                      046
     K01U92U  C2001 11 20.75928 00 34 08.72 +22 56 46.7                      046
     K01U92U  C2001 11 20.76057 00 34 08.66 +22 56 48.4                      046
     K01U92U  C2001 11 20.76336 00 34 08.48 +22 56 52.6          18.1 R      046
     K01U92U  C2001 11 20.85953 00 34 00.71 +22 59 15.3                      557
     K01U92U  C2001 11 20.86174 00 34 00.55 +22 59 18.9          19.0 V      557
     K01U92U  C2001 11 20.86396 00 34 00.34 +22 59 21.4                      557

Observer details:
046 Klet.  Observer M. Tichy.  0.57-m f/5.2 reflector + CCD.
557 Ondrejov.  Observers P. Pravec, P. Kusnirak, V. Mesta.  0.65-m f/3.6
    reflector + CCD.
587 Sormano.  Observers F. Manca, V. Giuliani.  0.5-m reflector + CCD.
644 Palomar Mountain/NEAT.  Observers E. F. Helin, S. Pravdo, K. Lawrence,
    M. Hicks, E. Hovland, T. Bickler, J. Schroeder, L. Scherr, R. Thicksten,
    A. Deetz.  1.2-m Schmidt + CCD.
649 Powell Observatory, Louisburg.  Observer K. Smalley.  Measurer R. Fredrick.
    0.75-m Newtonian + CCD.
704 Lincoln Laboratory ETS, New Mexico.  Observers M. Blythe, F. Shelly,
    M. Bezpalko, R. Huber, L. Manguso, S. Adams, J. Piscitelli.  Measurers
    J. Stuart, R. Sayer, J. B. Evans, H. Viggh.  1.0-m f/2.15 reflector + CCD.

Orbital elements:
2001 UU92
Epoch 2001 Oct. 18.0 TT = JDT 2452200.5                 MPC
M 347.04268              (2000.0)            P               Q
n   0.17510606     Peri.   87.39769     -0.08585997     -0.99623072
a   3.1642341      Node     7.56113     +0.87275732     -0.08118365
e   0.6690718      Incl.    5.38367     +0.48054420     -0.03055435
P   5.63           H   19.9           G   0.15           U   5
Residuals in seconds of arc
011019 644  0.1+  0.3-    011118 704  0.1-  0.2+    011120 649  0.0   0.4-
011019 644  0.2+  0.3-    011118 704  0.8+  0.8+    011120 649  0.1-  0.0
011019 644  0.4+  0.1+    011118 704  0.4-  0.4+    011120 649  0.3-  0.1-
011020 644  0.2-  0.1+    011118 704  0.6-  0.1+    011120 046  0.6+  0.3+
011020 644  0.2-  0.6+    011118 704  0.5+  0.4+    011120 046  0.5+  0.0
011020 644  0.4-  0.0     011118 704  0.6+  0.2-    011120 046  0.5+  1.3-
011110 704  0.3+  1.3-    011118 704  0.5-  1.4+    011120 046  0.6-  0.2-
011110 704  0.4+  0.6+    011118 704  0.5-  0.4+    011120 046  0.0   0.4-
011110 704  0.4+  0.7+    011118 704  0.3+  1.4+    011120 046  0.6+  0.4-
011110 704  0.3+  0.4-    011119 704  0.3-  0.3-    011120 557  0.1-  0.0
011112 704  0.5+  0.2+    011119 704  0.2-  0.3-    011120 557  0.1+  0.4+
011112 704  0.7-  0.1-    011119 704  0.4-  0.5-    011120 557  0.3-  0.4-
011112 704  0.1+  0.8-    011119 587  0.2-  0.4-
011112 704  1.1-  0.9-    011119 587  0.1-  0.7+

Ephemeris:
2001 UU92                a,e,i = 3.16, 0.67, 5                   q = 1.0471
Date    TT    R. A. (2000) Decl.     Delta      r     Elong.  Phase     V
2001 11 17    00 38.83   +21 29.7    0.265    1.204   140.0    31.8    18.8
2001 11 22    00 32.73   +23 28.3    0.246    1.173   134.3    37.1    18.7
2001 11 27    00 27.88   +25 48.1    0.229    1.145   128.9    42.1    18.6
2001 12 02    00 24.59   +28 33.5    0.213    1.119   124.1    46.8    18.6
2001 12 07    00 23.20   +31 49.6    0.198    1.097   119.9    51.1    18.5
2001 12 12    00 24.19   +35 42.5    0.183    1.079   116.5    54.8    18.4
2001 12 17    00 28.38   +40 19.5    0.170    1.065   114.0    57.6    18.3
2001 12 22    00 37.16   +45 48.0    0.157    1.054   112.7    59.4    18.1
2001 12 27    00 53.23   +52 11.4    0.146    1.049   112.8    59.9    18.0
2002 01 01    01 22.46   +59 20.5    0.137    1.047   114.4    58.8    17.8
2002 01 06    02 18.17   +66 30.3    0.131    1.050   117.6    56.0    17.6
2002 01 11    04 02.9    +71 29.6    0.128    1.058   122.4    51.7    17.5
2002 01 16    06 19.8    +70 52.4    0.131    1.070   128.4    46.1    17.4
2002 01 21    07 55.32   +65 04.0    0.138    1.086   134.8    40.0    17.4
2002 01 26    08 45.52   +57 32.1    0.150    1.106   141.2    33.9    17.4
2002 01 31    09 12.51   +50 12.9    0.167    1.129   147.1    28.3    17.5
2002 02 05    09 28.15   +43 45.0    0.188    1.156   152.1    23.5    17.7
2002 02 10    09 37.85   +38 15.1    0.213    1.185   156.2    19.6    17.9
2002 02 15    09 44.32   +33 38.5    0.242    1.217   159.1    16.9    18.1
2002 02 20    09 49.02   +29 47.1    0.274    1.251   160.5    15.3    18.4
2002 02 25    09 52.77   +26 33.0    0.311    1.287   160.4    15.0    18.7
2002 03 02    09 56.06   +23 49.0    0.351    1.324   159.0    15.6    19.1
2002 03 07    09 59.18   +21 29.2    0.394    1.363   156.6    16.8    19.4
2002 03 12    10 02.32   +19 28.8    0.441    1.403   153.7    18.3    19.8
2002 03 17    10 05.64   +17 43.7    0.492    1.444   150.5    19.8    20.2
2002 03 22    10 09.21   +16 10.7    0.547    1.486   147.1    21.4    20.5
2002 03 27    10 13.07   +14 47.3    0.605    1.528   143.6    22.8    20.8
2002 04 01    10 17.20   +13 31.6    0.667    1.571   140.1    24.1    21.1
2002 04 06    10 21.59   +12 22.1    0.732    1.614   136.7    25.2    21.4
2002 04 11    10 26.25   +11 17.4    0.801    1.657   133.2    26.1    21.7
2002 04 16    10 31.17   +10 16.5    0.873    1.700   129.8    26.9    22.0

Brian G. Marsden             (C) Copyright 2001 MPC           M.P.E.C. 2001-W34

Read MPEC 2001-W33 Read MPEC 2001-W35


Our Web policy. Index to the CBAT/MPC/ICQ pages.


Valid HTML 4.01!